User: anonymous   Login
Location: Lewisville
(33.0462°N, 96.9942°W)
Time: 17:46:28
(UTC-05:00)
Language:

Hubble Space Telescope - Orbit

View from above orbital plane
View from above orbital plane
View from above satellite
View from above satellite

Ground track
Ground track

The orbit data is extracted from the following two-line orbital elements,

1 20580U 90037B   20271.44190656 +.00000592 +00000-0 +24994-4 0  9999
2 20580 028.4709 005.0818 0002896 107.4135 302.3602 15.09437459471381
Epoch (UTC): 27 September 2020 10:36:20
Eccentricity: 0.0002896
inclination: 28.4709°
perigee height: 536 km
apogee height: 540 km
right ascension of ascending node: 5.0818°
argument of perigee: 107.4135°
revolutions per day: 15.09437459
mean anomaly at epoch: 302.3602°
orbit number at epoch: 47138

The dashed part of the orbit path shows where the satellite is in the earth's shadow,  

DLR